User: anonymous   Login
Location: Heisler
(52.6701°N, 112.2239°W)
Time: 23:15:31
(UTC+00:00)
Language:

N. Korean satellite - Orbit

View from above orbital plane
View from above orbital plane
View from above satellite
View from above satellite

Ground track
Ground track

The orbit data is extracted from the following two-line orbital elements,

1 39026U 12072A   22019.49337214  .00012830  00000-0  40742-3 0  9993
2 39026  97.2596  12.5409 0032812 336.6480  23.3270 15.32249674506086
Epoch (UTC): 19 January 2022 11:50:27
Eccentricity: 0.0032812
inclination: 97.2596°
perigee height: 446 km
apogee height: 491 km
right ascension of ascending node: 12.5409°
argument of perigee: 336.6480°
revolutions per day: 15.32249674
mean anomaly at epoch: 23.3270°
orbit number at epoch: 50608

The dashed part of the orbit path shows where the satellite is in the earth's shadow,  

DLR